This is the latest recevied weather packets stored in our database for station/object EA1L-13. If no packets are shown the sender has not sent any weather packets the latest 10 day(s).
| Time | Temp. | Humidity | Pressure | Rain* | Wind** | Luminosity | Snow |
|---|---|---|---|---|---|---|---|
| 1777643104 | 18.33° C | 70% | 1016 hPa | 0 mm | - | - | - |
| 1777642204 | 18.89° C | 71% | 1016 hPa | 0 mm | - | - | - |
| 1777641304 | 18.89° C | 72% | 1016.1 hPa | 0 mm | - | - | - |
| 1777640404 | 18.89° C | 71% | 1015.9 hPa | 0 mm | - | - | - |
| 1777639504 | 18.89° C | 71% | 1016.1 hPa | 0 mm | - | - | - |
| 1777638605 | 18.33° C | 73% | 1016.1 hPa | 0 mm | - | - | - |
| 1777637704 | 17.78° C | 75% | 1016.1 hPa | 0 mm | - | - | - |
| 1777636804 | 17.78° C | 73% | 1016.2 hPa | 0 mm | - | - | - |
| 1777635904 | 18.33° C | 71% | 1016.1 hPa | 0 mm | - | - | - |
| 1777635006 | 17.78° C | 72% | 1016.1 hPa | 0 mm | - | - | - |
| 1777634104 | 17.78° C | 71% | 1016.4 hPa | 0 mm | - | - | - |
| 1777633204 | 17.22° C | 74% | 1016.4 hPa | 0 mm | - | - | - |
| 1777632304 | 16.67° C | 75% | 1016.5 hPa | 0 mm | - | - | - |
| 1777631405 | 16.67° C | 75% | 1016.8 hPa | 0 mm | - | - | - |
| 1777630504 | 16.67° C | 77% | 1016.8 hPa | 0 mm | - | - | - |
| 1777629604 | 16.67° C | 77% | 1016.8 hPa | 0 mm | - | - | - |
| 1777628705 | 16.11° C | 80% | 1016.9 hPa | 0 mm | - | - | - |
| 1777627805 | 16.67° C | 82% | 1017.1 hPa | 0 mm | - | - | - |
| 1777626904 | 16.11° C | 85% | 1017.1 hPa | 0 mm | - | - | - |
| 1777626004 | 16.11° C | 89% | 1017.1 hPa | 0 mm | - | - | - |
| 1777625104 | 15.56° C | 95% | 1017.2 hPa | 0 mm | - | - | - |
| 1777624206 | 15° C | 97% | 1017.3 hPa | 0 mm | - | - | - |
| 1777623305 | 15° C | 100% | 1017.2 hPa | 0 mm | - | - | - |
| 1777622404 | 15° C | 100% | 1017.2 hPa | 0 mm | - | - | - |
| 1777621505 | 15° C | 100% | 1017.2 hPa | 0 mm | - | - | - |
* Rain latest hour (hover to see other rain measurements)
** Current wind speed in m/s (hover to see current wind gust speed)